Location: Unspecified
(41.5516°N, 88.1098°W)
Time: 19:59:25
(UTC-05:00)

Cosmos 2058 - Visible Passes

Search period start: 04 May 2016 00:00
Search period end: 14 May 2016 00:00
Orbit: 565 x 586 km, 82.5° (Epoch: 04 May)

Date Brightness Start Highest point End Pass type
(mag) Time Alt. Az. Time Alt. Az. Time Alt. Az.
04 May 5.6 04:09:22 10° SE 04:12:22 19° E 04:15:22 10° NE visible
05 May 5.1 04:12:31 10° SE 04:15:59 25° E 04:19:27 10° NNE visible
06 May 4.6 04:15:49 10° SSE 04:19:37 34° E 04:23:26 10° NNE visible
07 May 4.0 04:19:15 10° SSE 04:23:16 45° E 04:27:19 10° NNE visible
08 May 3.4 04:22:47 10° S 04:26:56 63° E 04:31:08 10° NNE visible
09 May 3.0 04:26:25 10° S 04:30:38 86° E 04:34:52 10° N visible
10 May 2.9 04:30:11 10° SSW 04:34:20 70° W 04:38:34 10° N visible
11 May 5.7 02:59:48 10° ESE 03:01:36 13° E 03:03:25 10° ENE visible
11 May 3.2 04:34:16 12° SSW 04:38:04 51° W 04:42:12 10° N visible
12 May 5.5 03:02:28 10° SE 03:05:11 17° E 03:07:53 10° NE visible
12 May 3.6 04:38:19 12° SW 04:41:48 37° WNW 04:45:45 10° N visible
13 May 5.1 03:06:03 13° SE 03:08:47 22° E 03:12:03 10° NE visible
13 May 4.0 04:42:19 12° SW 04:45:34 28° WNW 04:49:15 10° NNW visible
